This demonstration page uses our WeatherBlox Daily Observations layout. Learn more.

Hourly Observations for March 8, 2016

Temp ( °F °C ) Dew Point ( °F °C ) Humidity (%) Winds ( mph kmh ) Pressure ( in mb ) Visibility ( mi km ) Precip ( " mm )
12:15 am 00:15 Clear 47 8.1 35 1.4 63 63 WSW 10 17 29.62 1003 10 16.0934 0 0
12:35 am 00:35 Clear 46 8 35 1.5 64 64 WSW 12 19 29.62 1003 10 16.0934 0 0
12:55 am 00:55 Clear 47 8.1 35 1.6 64 64 WSW 15 24 29.62 1003 10 16.0934 0 0
1:15 am 01:15 Clear 46 7.5 35 1.5 66 66 WSW 17 28 29.62 1003 10 16.0934 0 0
1:35 am 01:35 Clear 45 7.3 35 1.5 67 67 W 20 31 29.62 1003 10 16.0934 0 0
1:55 am 01:55 Clear 44 6.6 35 1.4 70 70 W 17 28 29.62 1003 10 16.0934 0 0
2:15 am 02:15 Clear 43 6.1 34 1.2 71 71 WSW 17 28 29.62 1003 10 16.0934 0 0
2:35 am 02:35 Clear 42 5.7 34 1.3 74 74 WSW 12 19 29.62 1003 10 16.0934 0 0
2:55 am 02:55 Clear 41 5.1 34 1.1 76 76 WSW 10 17 29.65 1004 10 16.0934 0 0
3:15 am 03:15 Clear 40 4.6 34 1.1 78 78 WSW 8 13 29.68 1005 10 16.0934 0 0
3:35 am 03:35 Clear 41 4.8 35 1.6 80 80 W 12 19 29.68 1005 10 16.0934 0 0
3:55 am 03:55 Clear 40 4.7 35 1.8 82 82 W 12 19 29.68 1005 10 16.0934 0 0
4:15 am 04:15 Clear 40 4.5 35 1.7 82 82 W 12 19 29.68 1005 10 16.0934 0 0
4:35 am 04:35 Clear 40 4.4 35 1.7 83 83 W 10 17 29.68 1005 10 16.0934 0 0
4:55 am 04:55 Clear 39 4 35 1.5 84 84 W 9 15 29.71 1006 10 16.0934 0 0
5:15 am 05:15 Clear 39 3.7 35 1.5 86 86 W 8 13 29.71 1006 10 16.0934 0 0
5:35 am 05:35 Clear 38 3.5 35 1.5 87 87 W 9 15 29.74 1007 10 16.0934 0 0
5:55 am 05:55 Clear 38 3.6 35 1.5 86 86 W 8 13 29.74 1007 10 16.0934 0 0
6:15 am 06:15 Clear 38 3.2 34 1.3 88 88 W 9 15 29.74 1007 10 16.0934 0 0
6:35 am 06:35 Clear 37 3 34 1.1 87 87 W 9 15 29.77 1008 10 16.0934 0 0
6:55 am 06:55 Clear 37 2.6 34 0.9 89 89 W 10 17 29.8 1009 10 16.0934 0 0
7:15 am 07:15 Sunny 37 3 34 1 87 87 WNW 8 13 29.8 1009 10 16.0934 0 0
7:35 am 07:35 Sunny 37 2.5 33 0.5 87 87 WNW 6 9 29.8 1009 10 16.0934 0 0
7:55 am 07:55 Sunny 40 4.4 36 2 85 85 NW 6 9 29.77 1008 10 16.0934 0 0
8:15 am 08:15 Sunny 44 6.5 37 2.8 77 77 NW 7 11 29.8 1009 10 16.0934 0 0
8:35 am 08:35 Sunny 46 7.5 37 3 73 73 WNW 13 20 29.8 1009 10 16.0934 0 0
8:55 am 08:55 Sunny 47 8.2 37 3 70 70 NW 12 19 29.8 1009 10 16.0934 0 0
9:15 am 09:15 Sunny 48 9 37 2.7 65 65 NW 14 22 29.8 1009 10 16.0934 0 0
9:35 am 09:35 Sunny 49 9.5 36 2.4 62 62 NW 15 24 29.8 1009 10 16.0934 0 0
9:55 am 09:55 Sunny 50 10.1 36 2.4 59 59 NNW 16 26 29.8 1009 10 16.0934 0 0
10:15 am 10:15 Sunny 50 10.1 36 2.2 58 58 NW 15 24 29.8 1009 10 16.0934 0 0
10:35 am 10:35 Sunny 51 10.6 36 2.4 57 57 NW 12 19 29.77 1008 10 16.0934 0 0
10:55 am 10:55 Sunny 52 11 36 2.1 55 55 NNW 10 17 29.77 1008 10 16.0934 0 0
11:15 am 11:15 Sunny 53 11.5 36 2 52 52 NW 15 24 29.77 1008 10 16.0934 0 0
11:35 am 11:35 Sunny 54 12.1 36 2 50 50 NW 12 19 29.77 1008 10 16.0934 0 0
11:55 am 11:55 Sunny 55 12.5 35 1.5 47 47 NW 6 9 29.77 1008 10 16.0934 0 0
12:15 pm 12:15 Sunny 55 12.8 35 1.7 47 47 WNW 10 17 29.77 1008 10 16.0934 0 0
12:35 pm 12:35 Sunny 55 13 35 1.6 46 46 NW 9 15 29.77 1008 10 16.0934 0 0
12:55 pm 12:55 Sunny 56 13.1 35 1.7 46 46 NNW 10 17 29.77 1008 10 16.0934 0 0
1:15 pm 13:15 Sunny 56 13.5 35 1.6 45 45 NW 10 17 29.77 1008 10 16.0934 0 0
1:35 pm 13:35 Sunny 57 13.8 34 1.3 43 43 NNW 8 13 29.77 1008 10 16.0934 0 0
1:55 pm 13:55 Sunny 57 13.7 34 1.2 43 43 NW 9 15 29.77 1008 10 16.0934 0 0
2:15 pm 14:15 Sunny 57 13.9 34 1.1 42 42 W 9 15 29.74 1007 10 16.0934 0 0
2:35 pm 14:35 Sunny 57 14 34 0.9 41 41 WNW 6 9 29.74 1007 10 16.0934 0 0
2:55 pm 14:55 Sunny 57 14 33 0.5 40 40 NW 3 6 29.74 1007 10 16.0934 0 0
3:15 pm 15:15 Sunny 58 14.4 33 0.3 38 38 NNW 6 9 29.74 1007 10 16.0934 0 0
3:35 pm 15:35 Sunny 58 14.5 32 0.1 38 38 Calm 29.74 1007 10 16.0934 0 0
3:55 pm 15:55 Sunny 58 14.6 32 0 37 37 NW 5 7 29.74 1007 10 16.0934 0 0
4:15 pm 16:15 Sunny 59 15 32 0 36 36 NNW 5 7 29.71 1006 10 16.0934 0 0
4:35 pm 16:35 Sunny 59 15 32 0 36 36 NNW 3 6 29.71 1006 10 16.0934 0 0
4:55 pm 16:55 Sunny 59 15.1 32 0 36 36 NNE 9 15 29.74 1007 10 16.0934 0 0
5:15 pm 17:15 Sunny 57 14 33 0.7 41 41 NNE 16 26 29.74 1007 10 16.0934 0 0
5:35 pm 17:35 Partly Cloudy 57 13.8 33 0.5 40 40 NNE 15 24 29.77 1008 10 16.0934 0 0
5:55 pm 17:55 Mostly Cloudy 55 13 33 0.7 43 43 NNE 13 20 29.77 1008 10 16.0934 0 0
6:15 pm 18:15 Mostly Cloudy 53 11.6 33 0.6 47 47 NNE 14 22 29.77 1008 10 16.0934 0 0
6:35 pm 18:35 Mostly Cloudy 51 10.6 33 0.7 51 51 NNE 9 15 29.77 1008 10 16.0934 0 0
6:55 pm 18:55 Mostly Cloudy 49 9.6 34 0.9 55 55 NNE 10 17 29.8 1009 10 16.0934 0 0
7:15 pm 19:15 Partly Cloudy 47 8.6 33 0.8 58 58 NNE 8 13 29.8 1009 10 16.0934 0 0
7:35 pm 19:35 Partly Cloudy 46 7.6 33 0.7 62 62 NE 6 9 29.83 1010 10 16.0934 0 0
7:55 pm 19:55 Partly Cloudy 45 7.2 34 1 65 65 NE 8 13 29.85 1011 10 16.0934 0 0
8:15 pm 20:15 Clear 45 7.3 34 1.1 65 65 NE 6 9 29.85 1011 10 16.0934 0 0
8:35 pm 20:35 Clear 44 6.9 34 1 66 66 NE 6 9 29.88 1012 10 16.0934 0 0
8:55 pm 20:55 Clear 42 5.8 33 0.6 70 70 ENE 5 7 29.88 1012 10 16.0934 0 0
9:15 pm 21:15 Clear 41 5.2 33 0.5 72 72 ENE 7 11 29.91 1013 10 16.0934 0 0
9:35 pm 21:35 Clear 42 5.7 34 1 72 72 NE 7 11 29.91 1013 10 16.0934 0 0
9:55 pm 21:55 Clear 42 5.3 34 1 74 74 NNE 8 13 29.88 1012 10 16.0934 0 0
10:15 pm 22:15 Clear 39 3.9 32 0 76 76 NNE 6 9 29.91 1013 10 16.0934 0 0
10:35 pm 22:35 Clear 38 3.5 32 0 78 78 Calm 29.94 1014 10 16.0934 0 0
10:55 pm 22:55 Clear 38 3.5 32 0 78 78 Calm 29.94 1014 10 16.0934 0 0
11:15 pm 23:15 Clear 37 3 32 0 81 81 N 5 7 29.94 1014 10 16.0934 0 0
11:35 pm 23:35 Clear 36 2.4 31 -0.3 83 83 NNE 5 7 29.94 1014 10 16.0934 0 0
11:55 pm 23:55 Clear 33 0.6 30 -1.1 89 89 N 8 13 29.91 1013 10 16.0934 0 0

Powered by AerisWeather